Iron Station, NC

10:23 AM EDT on October 01, 2016 (GMT -0400)
Lincolnton-Lincoln County Regional

Weather History for KIPJ - January, 2012

Change the Weather History Date:

Monday, January 2, 2012

  Actual Average (KCLT) Record (KCLT)
Temperature  
Mean Temperature 38 °F 40 °F  
Max Temperature 46 °F 50 °F 78 °F (1952)
Min Temperature 30 °F 30 °F 6 °F (1928)
Degree Days  
Heating Degree Days 27 25  
Month to date heating degree days 50  
Since 1 July heating degree days 1387  
Cooling Degree Days 0 0  
Month to date cooling degree days 0  
Year to date cooling degree days 0  
Moisture  
Dew Point 14 °F    
Average Humidity 37    
Maximum Humidity 56    
Minimum Humidity 22    
Precipitation  
Precipitation 0.00 in 0.10 in 2.10 in (1936)
Month to date precipitation 0.21  
Year to date precipitation 0.21  
Snow  
Snow 0.00 in 0.10 in 1.20 in (1918)
Month to date snowfall 0.1  
Since 1 July snowfall 0.5  
Snow Depth -    
Sea Level Pressure  
Sea Level Pressure 30.02 in    
Wind  
Wind Speed 7 mph (WNW)    
Max Wind Speed 15 mph    
Max Gust Speed 28 mph    
Visibility 10 miles    
Events      
T = Trace of Precipitation, MM = Missing Value Source: NWS Daily Summary

Daily Weather History Graph

Daily Weather History Graph

Search for Another Location

Airport or City:

Trip Planner

Search our weather history database for the weather conditions in past years. The results will help you decide how hot, cold, wet, or windy it might be!

Date:

Astronomy

Jan. 02, 2012 Rise Set
Actual Time 7:34 AM EST 5:23 PM EST
Civil Twilight 7:05 AM EST 5:51 PM EST
Nautical Twilight 6:34 AM EST 6:23 PM EST
Astronomical Twilight 6:03 AM EST 6:54 PM EST
Moon 12:34 PM EST (1/2) 1:31 AM EST (1/2)
Length of Visible Light 10h 45m
Length of Day
9h 49m
Waxing Gibbous, 63% of the Moon is Illuminated
Jan 2
Waxing Gibbous
Jan 9
Full
Jan 16
Last Quarter
Jan 23
New
Jan 30
First Quarter

Hourly Weather History & Observations

Time (EST) Temp. Windchill Dew Point Humidity Pressure Visibility Wind Dir Wind Speed Gust Speed Precip Events Conditions
12:15 AM 44.6 °F 40.2 °F 19.4 °F 37% 30.04 in 10.0 mi WNW 8.1 mph - N/A   Clear
12:55 AM 44.6 °F 42.2 °F 21.2 °F 39% 30.04 in 10.0 mi WNW 4.6 mph - N/A   Clear
1:15 AM 42.8 °F 41.1 °F 21.2 °F 42% 30.04 in 10.0 mi West 3.5 mph - N/A   Clear
1:35 AM 41.0 °F 39.0 °F 23.0 °F 49% 30.04 in 10.0 mi SW 3.5 mph - N/A   Clear
1:55 AM 37.4 °F - 23.0 °F 56% 30.03 in 10.0 mi Calm Calm - N/A   Clear
2:15 AM 39.2 °F 35.0 °F 23.0 °F 52% 30.04 in 10.0 mi West 5.8 mph - N/A   Clear
2:35 AM 41.0 °F 34.7 °F 23.0 °F 49% 30.03 in 10.0 mi West 10.4 mph 18.4 mph N/A   Clear
2:55 AM 41.0 °F 36.4 °F 19.4 °F 42% 30.03 in 10.0 mi West 6.9 mph - N/A   Clear
3:15 AM 41.0 °F 37.1 °F 19.4 °F 42% 30.02 in 10.0 mi NW 5.8 mph - N/A   Clear
3:35 AM 39.2 °F 35.9 °F 19.4 °F 45% 30.02 in 10.0 mi WNW 4.6 mph - N/A   Clear
3:55 AM 39.2 °F 35.0 °F 17.6 °F 42% 30.03 in 10.0 mi NW 5.8 mph - N/A   Clear
4:15 AM 39.2 °F 34.2 °F 17.6 °F 42% 30.03 in 10.0 mi NW 6.9 mph - N/A   Clear
4:35 AM 39.2 °F 35.0 °F 17.6 °F 42% 30.03 in 10.0 mi WNW 5.8 mph - N/A   Clear
4:55 AM 39.2 °F 35.0 °F 17.6 °F 42% 30.03 in 10.0 mi WNW 5.8 mph - N/A   Clear
5:15 AM 37.4 °F - 17.6 °F 45% 30.03 in 10.0 mi Calm Calm - N/A   Clear
5:35 AM 37.4 °F 34.9 °F 17.6 °F 45% 30.03 in 10.0 mi NW 3.5 mph - N/A   Clear
5:55 AM 37.4 °F - 17.6 °F 45% 30.04 in 10.0 mi Calm Calm - N/A   Clear
6:15 AM 35.6 °F - 17.6 °F 48% 30.04 in 10.0 mi Calm Calm - N/A   Clear
6:35 AM 33.8 °F - 19.4 °F 56% 30.04 in 10.0 mi Calm Calm - N/A   Clear
6:55 AM 33.8 °F - 17.6 °F 52% 30.05 in 10.0 mi Calm Calm - N/A   Clear
7:15 AM 33.8 °F 28.6 °F 17.6 °F 52% 30.05 in 10.0 mi West 5.8 mph - N/A   Clear
7:35 AM 35.6 °F 32.8 °F 15.8 °F 44% 30.05 in 10.0 mi WNW 3.5 mph - N/A   Clear
7:55 AM 33.8 °F - 17.6 °F 52% 30.06 in 10.0 mi Calm Calm - N/A   Clear
8:15 AM 35.6 °F 31.7 °F 14.0 °F 41% 30.07 in 10.0 mi WNW 4.6 mph - N/A   Clear
8:35 AM 37.4 °F 33.8 °F 12.2 °F 36% 30.07 in 10.0 mi WNW 4.6 mph - N/A   Clear
8:55 AM 37.4 °F 30.3 °F 12.2 °F 36% 30.07 in 10.0 mi NW 10.4 mph - N/A   Clear
9:15 AM 39.2 °F 33.0 °F 14.0 °F 36% 30.06 in 10.0 mi NW 9.2 mph 18.4 mph N/A   Clear
9:35 AM 41.0 °F 34.3 °F 14.0 °F 33% 30.06 in 10.0 mi NW 11.5 mph 18.4 mph N/A   Clear
9:55 AM 41.0 °F 34.7 °F 12.2 °F 31% 30.06 in 10.0 mi WNW 10.4 mph 16.1 mph N/A   Clear
10:15 AM 41.0 °F 34.7 °F 12.2 °F 31% 30.06 in 10.0 mi West 10.4 mph - N/A   Clear
10:35 AM 41.0 °F 34.7 °F 10.4 °F 29% 30.06 in 10.0 mi West 10.4 mph 19.6 mph N/A   Clear
10:55 AM 42.8 °F 37.5 °F 12.2 °F 29% 30.05 in 10.0 mi West 9.2 mph - N/A   Clear
11:15 AM 42.8 °F 38.0 °F 12.2 °F 29% 30.04 in 10.0 mi West 8.1 mph - N/A   Clear
11:35 AM 42.8 °F 40.1 °F 12.2 °F 29% 30.02 in 10.0 mi WNW 4.6 mph 9.2 mph N/A   Clear
11:55 AM 44.6 °F 42.2 °F 12.2 °F 27% 30.01 in 10.0 mi WNW 4.6 mph 16.1 mph N/A   Clear
12:15 PM 44.6 °F 42.2 °F 14.0 °F 29% 29.99 in 10.0 mi SW 4.6 mph - N/A   Clear
12:35 PM 44.6 °F 38.8 °F 14.0 °F 29% 29.98 in 10.0 mi WSW 11.5 mph - N/A   Clear
12:55 PM 44.6 °F 40.2 °F 14.0 °F 29% 29.97 in 10.0 mi SW 8.1 mph - N/A   Clear
1:15 PM 44.6 °F 39.7 °F 12.2 °F 27% 29.96 in 10.0 mi West 9.2 mph 16.1 mph N/A   Clear
1:35 PM 44.6 °F 40.2 °F 12.2 °F 27% 29.95 in 10.0 mi West 8.1 mph 19.6 mph N/A   Clear
1:55 PM 44.6 °F 41.4 °F 12.2 °F 27% 29.94 in 10.0 mi West 5.8 mph - N/A   Clear
2:15 PM 46.4 °F 42.4 °F 10.4 °F 23% 29.93 in 10.0 mi West 8.1 mph 19.6 mph N/A   Clear
2:35 PM 46.4 °F 41.5 °F 8.6 °F 22% 29.93 in 10.0 mi West 10.4 mph 27.6 mph N/A   Clear
2:55 PM 46.4 °F 41.1 °F 8.6 °F 22% 29.93 in 10.0 mi West 11.5 mph 19.6 mph N/A   Clear
3:15 PM 44.6 °F 40.2 °F 12.2 °F 27% 29.93 in 10.0 mi WNW 8.1 mph - N/A   Clear
3:35 PM 44.6 °F 38.8 °F 12.2 °F 27% 29.95 in 10.0 mi NW 11.5 mph 18.4 mph N/A   Clear
3:55 PM 42.8 °F 35.4 °F 10.4 °F 27% 29.96 in 10.0 mi NNW 15.0 mph 21.9 mph N/A   Clear
4:15 PM 41.0 °F 33.9 °F 10.4 °F 29% 29.97 in 10.0 mi NW 12.7 mph 20.7 mph N/A   Clear
4:35 PM 39.2 °F 32.0 °F 10.4 °F 31% 29.98 in 10.0 mi NNW 11.5 mph 18.4 mph N/A   Clear
4:55 PM 37.4 °F 32.1 °F 10.4 °F 33% 29.98 in 10.0 mi NW 6.9 mph 17.3 mph N/A   Clear
5:15 PM 37.4 °F 29.8 °F 10.4 °F 33% 29.99 in 10.0 mi NW 11.5 mph 19.6 mph N/A   Clear
5:35 PM 35.6 °F 29.9 °F 10.4 °F 35% 29.99 in 10.0 mi NW 6.9 mph 17.3 mph N/A   Scattered Clouds
5:55 PM 35.6 °F 28.0 °F 10.4 °F 35% 30.00 in 10.0 mi NW 10.4 mph 17.3 mph N/A   Overcast
6:15 PM 35.6 °F 29.2 °F 10.4 °F 35% 30.01 in 10.0 mi WNW 8.1 mph 16.1 mph N/A   Overcast
6:35 PM 35.6 °F 29.2 °F 10.4 °F 35% 30.02 in 10.0 mi WNW 8.1 mph 17.3 mph N/A   Overcast
6:55 PM 33.8 °F 27.7 °F 10.4 °F 38% 30.02 in 10.0 mi NW 6.9 mph - N/A   Mostly Cloudy
7:15 PM 33.8 °F 24.3 °F 8.6 °F 35% 30.03 in 10.0 mi NW 13.8 mph 25.3 mph N/A   Scattered Clouds
7:35 PM 32.0 °F 23.0 °F 6.8 °F 35% 30.04 in 10.0 mi NW 11.5 mph 20.7 mph N/A   Overcast
7:55 PM 32.0 °F 23.0 °F 8.6 °F 38% 30.05 in 10.0 mi NW 11.5 mph 20.7 mph N/A   Overcast
8:15 PM 32.0 °F 25.6 °F 8.6 °F 38% 30.05 in 10.0 mi WNW 6.9 mph 19.6 mph N/A   Scattered Clouds
8:35 PM 32.0 °F 24.2 °F 6.8 °F 35% 30.06 in 10.0 mi WNW 9.2 mph 21.9 mph N/A   Clear
8:55 PM 30.2 °F 20.2 °F 6.8 °F 37% 30.06 in 10.0 mi WNW 12.7 mph 19.6 mph N/A   Clear
9:15 PM 30.2 °F 21.3 °F 8.6 °F 40% 30.08 in 10.0 mi NW 10.4 mph 17.3 mph N/A   Clear
9:35 PM 30.2 °F 21.3 °F 10.4 °F 44% 30.08 in 10.0 mi NW 10.4 mph 19.6 mph N/A   Clear
9:55 PM 30.2 °F 21.9 °F 10.4 °F 44% 30.09 in 10.0 mi WNW 9.2 mph 17.3 mph N/A   Clear
10:15 PM 28.4 °F 20.4 °F 10.4 °F 47% 30.09 in 10.0 mi WNW 8.1 mph - N/A   Clear
10:35 PM 28.4 °F 19.7 °F 10.4 °F 47% 30.09 in 10.0 mi WNW 9.2 mph 18.4 mph N/A   Clear
10:55 PM 28.4 °F 22.2 °F 10.4 °F 47% 30.09 in 10.0 mi NW 5.8 mph - N/A   Clear
11:15 PM 28.4 °F 21.2 °F 10.4 °F 47% 30.09 in 10.0 mi WNW 6.9 mph - N/A   Clear
11:35 PM 28.4 °F 23.3 °F 10.4 °F 47% 30.09 in 10.0 mi NW 4.6 mph - N/A   Clear
11:55 PM 26.6 °F 21.2 °F 10.4 °F 51% 30.10 in 10.0 mi WNW 4.6 mph - N/A   Clear